KSLV-II R/B, 56750

Orbit data source: Space-Track

KSLV-II R/B, 56750 is space debris in SSO originally from a launch on Thu, 25 May 2023 UTC launched from the Naro Space Center, South Korea (NSC). Debris objects in space refer to the collection of defunct objects orbiting the Earth. Examples of debris include non-operational satellites, rocket bodies, and fragments generated from explosions, collisions, or faulty payload assembly.

Loading next visibility...
Identifier
56750, 2023-072H
Orbit
SSO
Country
Flag of KRKR / SKOR
Related business
Manufacturer
KARI
Mission
Spacecraft
Bus & Motor
Unknown
Mass
1,250 kg wet, 1,250 kg dry
Launch date (UTC)
2023-05-25 (3 years ago)
Launch vehicle
Unknown
Launch site
Naro Space Center, South Korea (NSC)
Object type
Payload
Rocket body
Debris
Shape & HBR
Cyl, 1.8 m
Radar Cross Section
10.006 m², Large (>1 m²)

Expand to show TLE details & history
Last TLE update: 12 hours ago

TLE from 12 hours ago
0 KSLV-II R/B
1 56750U 23072H   26171.45818007  .00006086  00000-0  18235-3 0  9999
2 56750  97.4888  18.2485 0023245 312.7377  47.1909 15.34625624170896
Epoch: 2026-06-20T10:59Z
TLE epoch observation values (Epoch: 2026-06-20T10:59:46.758Z)
Latitude
0.00001°
Longitude
-55.36884°
Altitude
454.353 km
Speed
7.646 km/s
True Right ascension
01h 12m 59s
True Declination
0° 00' 00"
Sunlit
Object was in daylight at epoch
Visualization orbit readout
Latitude
Unknown
Longitude
Unknown
Altitude
Unknown
Speed
Unknown
Apparent Right ascension
Unknown
Apparent Declination
Unknown
Sunlit
N/A
Visualization observer readout
Local Sidereal Time
09:35:54
Azimuth
Unknown
Elevation
Unknown
Doppler factor
Unknown
Orbital elements
Apogee altitude
474.876 km
Perigee altitude
443.09 km
Semi-major axis
6,837.12 km
Eccentricity
0.00232
Inclination
97.4888°
RAAN
18.2485°
Arg. of periapsis
312.7377°
True anomaly
47.3867°
Mean anomaly
47.1909°
Eccentric anomaly
47.28876°
Mean motion
3.83914 °/min
Orbital period
93.77 mins
BSTAR
0.00018235
Loading maneuver chart data...
Computing Atmospheric mass density...
Loading historical data...
Loading historical data...
Loading historical data...
Loading historical data...
Loading historical data...
Loading historical data...
Loading historical data...

Documentation

Showing up to 5 results
|